| time (UTC) | temp F | wind direction | speed knots | gust knots | rain 1hr in | rain 24hr in | rain mn in | humidity % | barometer mb |
| 20260507074004 | 64 | 245 | 0.0 | 1.7 | 0.00 | 0.30 | 0.00 | 85 | 1015.1 |
| 20260507073817 | 65 | 246 | 0.9 | 1.7 | 0.00 | 0.30 | 0.00 | 84 | 1015.1 |
| 20260507073204 | 65 | 266 | 0.0 | 1.7 | 0.00 | 0.30 | 0.00 | 84 | 1015.0 |
| 20260507072804 | 68 | 351 | 0.0 | 1.7 | 0.00 | 0.30 | 0.00 | 82 | 1014.9 |
| 20260507072404 | 68 | 59 | 0.0 | 1.7 | 0.00 | 0.30 | 0.00 | 78 | 1015.0 |
| 20260507072003 | 67 | 67 | 0.9 | 1.7 | 0.00 | 0.30 | 0.00 | 82 | 1015.1 |
| 20260507071604 | 64 | 0 | 0.0 | 0.0 | 0.00 | 0.30 | 0.00 | 85 | 1015.0 |
| 20260507071203 | 64 | 0 | 0.0 | 0.0 | 0.00 | 0.30 | 0.00 | 87 | 1014.9 |
| 20260507070804 | 64 | 0 | 0.0 | 0.0 | 0.00 | 0.30 | 0.00 | 87 | 1014.9 |
| 20260507070404 | 64 | 22 | 0.0 | 1.7 | 0.00 | 0.30 | 0.00 | 88 | 1014.7 |
| 20260507070008 | 63 | 4 | 0.0 | 1.7 | 0.00 | 0.30 | 0.00 | 88 | 1014.9 |
| 20260507065604 | 63 | 324 | 0.0 | 1.7 | 0.00 | 0.30 | 0.00 | 90 | 1014.9 |
| 20260507065203 | 62 | 260 | 0.0 | 1.7 | 0.00 | 0.30 | 0.00 | 92 | 1014.7 |
| 20260507065014 | 62 | 255 | 0.0 | 1.7 | 0.00 | 0.31 | 0.00 | 92 | 1014.7 |
| 20260507064614 | 62 | 256 | 0.9 | 3.5 | 0.00 | 0.31 | 0.00 | 92 | 1014.7 |
| 20260507064004 | 63 | 264 | 0.0 | 3.5 | 0.00 | 0.31 | 0.00 | 92 | 1014.7 |
| 20260507063603 | 61 | 266 | 1.7 | 3.5 | 0.00 | 0.31 | 0.00 | 94 | 1014.8 |
| 20260507063203 | 62 | 216 | 0.9 | 1.7 | 0.00 | 0.31 | 0.00 | 95 | 1014.8 |
| 20260507062803 | 61 | 0 | 0.0 | 0.0 | 0.00 | 0.31 | 0.00 | 99 | 1014.5 |
| 20260507062403 | 61 | 262 | 0.0 | 1.7 | 0.00 | 0.31 | 0.00 | 99 | 1014.7 |
| 20260507062003 | 59 | 268 | 0.0 | 3.5 | 0.00 | 0.31 | 0.00 | 99 | 1014.6 |
| 20260507061603 | 59 | 267 | 0.9 | 3.5 | 0.00 | 0.31 | 0.00 | 99 | 1014.7 |
| 20260507061204 | 59 | 262 | 0.0 | 3.5 | 0.00 | 0.31 | 0.00 | 99 | 1014.5 |
| 20260507060803 | 59 | 234 | 0.0 | 1.7 | 0.00 | 0.31 | 0.00 | 99 | 1014.8 |
| 20260507060403 | 59 | 219 | 0.0 | 1.7 | 0.00 | 0.31 | 0.00 | 99 | 1014.7 |
| 20260507060003 | 59 | 235 | 0.0 | 1.7 | 0.00 | 0.31 | 0.00 | 99 | 1014.7 |
| 20260507055603 | 58 | 270 | 0.0 | 1.7 | 0.00 | 0.31 | 0.00 | 99 | 1014.6 |
| 20260507055203 | 58 | 272 | 0.9 | 1.7 | 0.00 | 0.31 | 0.00 | 99 | 1014.5 |
| 20260507054803 | 58 | 262 | 0.0 | 1.7 | 0.00 | 0.31 | 0.00 | 99 | 1014.6 |
| 20260507054403 | 58 | 237 | 0.9 | 1.7 | 0.00 | 0.31 | 0.00 | 99 | 1014.5 |
| 20260507054003 | 58 | 248 | 0.0 | 3.5 | 0.00 | 0.31 | 0.00 | 99 | 1014.4 |
| 20260507053603 | 58 | 258 | 0.0 | 3.5 | 0.00 | 0.31 | 0.00 | 99 | 1014.2 |
| 20260507053204 | 57 | 240 | 1.7 | 1.7 | 0.00 | 0.31 | 0.00 | 99 | 1014.5 |
| 20260507052804 | 58 | 234 | 0.0 | 1.7 | 0.00 | 0.31 | 0.00 | 99 | 1014.4 |
| 20260507052616 | 58 | 230 | 0.0 | 1.7 | 0.00 | 0.31 | 0.00 | 99 | 1014.3 |
| 20260507052005 | 58 | 247 | 0.0 | 1.7 | 0.00 | 0.31 | 0.00 | 99 | 1014.1 |
| 20260507051604 | 58 | 0 | 0.0 | 0.0 | 0.00 | 0.31 | 0.00 | 99 | 1014.2 |
| 20260507051203 | 57 | 0 | 0.0 | 0.0 | 0.00 | 0.31 | 0.00 | 99 | 1014.3 |
| 20260507050804 | 57 | 0 | 0.0 | 0.0 | 0.00 | 0.31 | 0.00 | 99 | 1014.2 |
| 20260507050404 | 57 | 0 | 0.0 | 0.0 | 0.00 | 0.31 | 0.00 | 99 | 1014.0 |
| 20260507050004 | 56 | 0 | 0.0 | 0.0 | 0.00 | 0.31 | 0.00 | 99 | 1014.1 |
| 20260507045603 | 56 | 0 | 0.0 | 0.0 | 0.00 | 0.31 | 0.00 | 99 | 1013.9 |
| 20260507045203 | 56 | 270 | 0.0 | 1.7 | 0.00 | 0.31 | 0.00 | 99 | 1014.0 |
| 20260507044804 | 56 | 270 | 0.0 | 1.7 | 0.00 | 0.31 | 0.00 | 99 | 1013.9 |
| 20260507044403 | 56 | 270 | 0.0 | 1.7 | 0.00 | 0.31 | 0.00 | 99 | 1014.0 |
| 20260507044003 | 56 | 270 | 0.0 | 1.7 | 0.00 | 0.31 | 0.00 | 99 | 1014.0 |
| 20260507043604 | 56 | 270 | 0.0 | 1.7 | 0.00 | 0.31 | 0.00 | 99 | 1013.8 |
| 20260507043203 | 56 | 270 | 0.0 | 1.7 | 0.00 | 0.31 | 0.00 | 99 | 1013.8 |
| 20260507043017 | 56 | 270 | 0.0 | 1.7 | 0.00 | 0.31 | 0.00 | 99 | 1013.8 |
| 20260507042403 | 56 | 270 | 0.9 | 1.7 | 0.00 | 0.31 | 0.00 | 99 | 1013.8 |
| 20260507042216 | 56 | 270 | 0.0 | 1.7 | 0.00 | 0.31 | 0.00 | 99 | 1013.8 |
| 20260507041603 | 56 | 0 | 0.0 | 0.0 | 0.00 | 0.31 | 0.00 | 99 | 1013.7 |
| 20260507041204 | 56 | 0 | 0.0 | 0.0 | 0.00 | 0.31 | 0.00 | 99 | 1013.5 |
| 20260507040805 | 56 | 0 | 0.0 | 0.0 | 0.00 | 0.31 | 0.00 | 99 | 1013.5 |
| 20260507040403 | 56 | 0 | 0.0 | 0.0 | 0.00 | 0.31 | 0.00 | 99 | 1013.6 |
| 20260507040004 | 56 | 0 | 0.0 | 0.0 | 0.00 | 0.31 | 0.00 | 99 | 1013.5 |
| 20260507035603 | 56 | 0 | 0.0 | 0.0 | 0.00 | 0.31 | 0.00 | 99 | 1013.5 |
| 20260507035203 | 56 | 0 | 0.0 | 0.0 | 0.00 | 0.31 | 0.00 | 99 | 1013.5 |
| 20260507034803 | 56 | 0 | 0.0 | 0.0 | 0.00 | 0.31 | 0.00 | 99 | 1013.4 |
| 20260507034616 | 56 | 0 | 0.0 | 0.0 | 0.00 | 0.31 | 0.00 | 99 | 1013.3 |
| 20260507034004 | 56 | 0 | 0.0 | 0.0 | 0.00 | 0.32 | 0.00 | 99 | 1013.7 |
| 20260507033603 | 56 | 0 | 0.0 | 0.0 | 0.00 | 0.37 | 0.00 | 99 | 1013.7 |
| 20260507033203 | 56 | 0 | 0.0 | 0.0 | 0.00 | 0.38 | 0.00 | 99 | 1013.6 |
| 20260507032804 | 56 | 0 | 0.0 | 0.0 | 0.00 | 0.43 | 0.00 | 99 | 1013.5 |
| 20260507032403 | 56 | 22 | 0.0 | 1.7 | 0.00 | 0.44 | 0.00 | 99 | 1013.5 |
| 20260507032004 | 56 | 22 | 0.0 | 1.7 | 0.00 | 0.44 | 0.00 | 99 | 1013.6 |
| 20260507031604 | 56 | 22 | 0.0 | 1.7 | 0.00 | 0.44 | 0.00 | 99 | 1013.4 |
| 20260507031204 | 56 | 356 | 0.0 | 1.7 | 0.00 | 0.44 | 0.00 | 99 | 1013.5 |
| 20260507030804 | 56 | 297 | 0.9 | 1.7 | 0.00 | 0.44 | 0.00 | 99 | 1013.5 |
| 20260507030614 | 55 | 286 | 0.0 | 1.7 | 0.00 | 0.44 | 0.00 | 99 | 1013.4 |
| 20260507030004 | 55 | 304 | 0.0 | 1.7 | 0.00 | 0.44 | 0.00 | 99 | 1013.3 |
| 20260507025604 | 55 | 322 | 0.0 | 1.7 | 0.00 | 0.44 | 0.00 | 99 | 1013.4 |
| 20260507025205 | 55 | 351 | 0.9 | 1.7 | 0.00 | 0.44 | 0.00 | 99 | 1013.3 |
| 20260507025017 | 55 | 299 | 0.0 | 1.7 | 0.00 | 0.44 | 0.00 | 99 | 1013.3 |
| 20260507024403 | 55 | 292 | 0.0 | 1.7 | 0.00 | 0.44 | 0.00 | 99 | 1013.2 |
| 20260507024003 | 54 | 0 | 0.0 | 0.0 | 0.00 | 0.44 | 0.00 | 99 | 1013.3 |
| 20260507023604 | 54 | 0 | 0.0 | 0.0 | 0.00 | 0.44 | 0.00 | 99 | 1013.5 |
| 20260507023203 | 54 | 0 | 0.0 | 0.0 | 0.00 | 0.44 | 0.00 | 99 | 1013.1 |
| 20260507023014 | 54 | 0 | 0.0 | 0.0 | 0.00 | 0.44 | 0.00 | 99 | 1013.2 |
| 20260507022403 | 54 | 0 | 0.0 | 0.0 | 0.00 | 0.44 | 0.00 | 99 | 1013.4 |
| 20260507022217 | 54 | 0 | 0.0 | 0.0 | 0.00 | 0.44 | 0.00 | 99 | 1013.2 |
| 20260507021603 | 54 | 0 | 0.0 | 0.0 | 0.00 | 0.44 | 0.00 | 99 | 1013.4 |
| 20260507021204 | 54 | 0 | 0.0 | 0.0 | 0.00 | 0.44 | 0.00 | 99 | 1013.4 |
| 20260507020803 | 54 | 0 | 0.0 | 0.0 | 0.00 | 0.44 | 0.00 | 99 | 1013.1 |
| 20260507020404 | 54 | 0 | 0.0 | 0.0 | 0.00 | 0.44 | 0.00 | 99 | 1013.4 |
| 20260507020004 | 54 | 0 | 0.0 | 0.0 | 0.00 | 0.44 | 0.00 | 99 | 1013.2 |
| 20260507015603 | 54 | 0 | 0.0 | 0.0 | 0.00 | 0.44 | 0.00 | 99 | 1013.2 |
| 20260507015418 | 54 | 0 | 0.0 | 0.0 | 0.00 | 0.44 | 0.00 | 99 | 1013.4 |
| 20260507014804 | 54 | 0 | 0.0 | 0.0 | 0.00 | 0.44 | 0.00 | 99 | 1013.3 |
| 20260507014404 | 54 | 0 | 0.0 | 0.0 | 0.00 | 0.44 | 0.00 | 99 | 1013.3 |
| 20260507014003 | 54 | 0 | 0.0 | 0.0 | 0.00 | 0.44 | 0.00 | 99 | 1013.2 |
| 20260507013603 | 54 | 0 | 0.0 | 0.0 | 0.00 | 0.44 | 0.00 | 99 | 1013.2 |
| 20260507013204 | 55 | 0 | 0.0 | 0.0 | 0.00 | 0.44 | 0.00 | 99 | 1013.2 |
| 20260507012804 | 54 | 0 | 0.0 | 0.0 | 0.00 | 0.44 | 0.00 | 99 | 1013.1 |
| 20260507012614 | 54 | 0 | 0.0 | 0.0 | 0.00 | 0.44 | 0.00 | 99 | 1013.1 |
| 20260507012213 | 54 | 0 | 0.0 | 0.0 | 0.00 | 0.44 | 0.00 | 99 | 1013.0 |
| 20260507011603 | 55 | 0 | 0.0 | 0.0 | 0.00 | 0.44 | 0.00 | 99 | 1013.2 |
| 20260507011205 | 55 | 0 | 0.0 | 0.0 | 0.00 | 0.44 | 0.00 | 99 | 1013.1 |
| 20260507010804 | 56 | 0 | 0.0 | 0.0 | 0.00 | 0.44 | 0.00 | 99 | 1012.9 |
| 20260507010403 | 56 | 0 | 0.0 | 0.0 | 0.00 | 0.44 | 0.00 | 99 | 1013.1 |
| 20260507010215 | 56 | 0 | 0.0 | 0.0 | 0.00 | 0.44 | 0.00 | 99 | 1013.0 |
| 20260507005604 | 56 | 0 | 0.0 | 0.0 | 0.00 | 0.44 | 0.00 | 99 | 1013.4 |
| 20260507005203 | 56 | 270 | 0.0 | 1.7 | 0.00 | 0.44 | 0.00 | 99 | 1013.3 |
| 20260507004804 | 56 | 276 | 0.0 | 1.7 | 0.00 | 0.44 | 0.00 | 99 | 1013.1 |
| 20260507004404 | 56 | 275 | 0.0 | 1.7 | 0.00 | 0.44 | 0.00 | 99 | 1013.2 |
| 20260507004004 | 56 | 270 | 0.0 | 1.7 | 0.00 | 0.44 | 0.00 | 99 | 1013.0 |
| 20260507003604 | 55 | 270 | 0.0 | 1.7 | 0.00 | 0.44 | 0.00 | 99 | 1013.2 |
| 20260507003203 | 55 | 270 | 0.0 | 1.7 | 0.00 | 0.44 | 0.00 | 99 | 1013.1 |
| 20260507002803 | 56 | 270 | 0.0 | 1.7 | 0.00 | 0.44 | 0.00 | 99 | 1013.2 |
| 20260507002403 | 56 | 270 | 0.0 | 1.7 | 0.00 | 0.44 | 0.00 | 99 | 1013.4 |
| 20260507002003 | 55 | 0 | 0.0 | 0.0 | 0.00 | 0.44 | 0.00 | 99 | 1013.1 |
| 20260507001603 | 55 | 0 | 0.0 | 0.0 | 0.00 | 0.44 | 0.00 | 99 | 1013.0 |
| 20260507001412 | 55 | 0 | 0.0 | 0.0 | 0.00 | 0.44 | 0.00 | 99 | 1013.0 |
| 20260507000803 | 56 | 0 | 0.0 | 0.0 | 0.00 | 0.44 | 0.00 | 99 | 1013.1 |
| 20260507000405 | 56 | 0 | 0.0 | 0.0 | 0.00 | 0.44 | 0.00 | 99 | 1012.9 |
| 20260507000216 | 56 | 0 | 0.0 | 0.0 | 0.00 | 0.44 | 0.00 | 99 | 1013.0 |
| 20260506235603 | 56 | 0 | 0.0 | 0.0 | 0.00 | 0.44 | 0.00 | 99 | 1013.1 |
| 20260506235204 | 56 | 0 | 0.0 | 0.0 | 0.00 | 0.44 | 0.00 | 99 | 1013.2 |
| 20260506234804 | 56 | 0 | 0.0 | 0.0 | 0.00 | 0.44 | 0.00 | 99 | 1013.2 |
| 20260506234613 | 56 | 0 | 0.0 | 0.0 | 0.00 | 0.44 | 0.00 | 99 | 1012.9 |
| 20260506234004 | 56 | 282 | 0.0 | 1.7 | 0.00 | 0.44 | 0.00 | 99 | 1013.1 |
| 20260506233604 | 57 | 282 | 0.0 | 1.7 | 0.00 | 0.44 | 0.00 | 99 | 1013.2 |
| 20260506233203 | 57 | 337 | 0.0 | 1.7 | 0.00 | 0.44 | 0.00 | 99 | 1013.3 |
| 20260506233016 | 57 | 0 | 0.0 | 0.0 | 0.00 | 0.44 | 0.00 | 99 | 1013.2 |
| 20260506232404 | 57 | 0 | 0.0 | 0.0 | 0.00 | 0.44 | 0.00 | 99 | 1013.1 |
| 20260506232004 | 57 | 0 | 0.0 | 0.0 | 0.00 | 0.44 | 0.00 | 99 | 1013.2 |
| 20260506231604 | 56 | 0 | 0.0 | 0.0 | 0.00 | 0.44 | 0.00 | 99 | 1012.9 |
| 20260506231413 | 56 | 0 | 0.0 | 0.0 | 0.00 | 0.44 | 0.00 | 99 | 1013.1 |
| 20260506230803 | 56 | 0 | 0.0 | 0.0 | 0.00 | 0.44 | 0.00 | 99 | 1013.1 |
| 20260506230403 | 56 | 0 | 0.0 | 0.0 | 0.00 | 0.44 | 0.00 | 99 | 1013.3 |
| 20260506230004 | 57 | 0 | 0.0 | 0.0 | 0.00 | 0.44 | 0.00 | 99 | 1013.1 |
| 20260506225604 | 57 | 0 | 0.0 | 0.0 | 0.00 | 0.44 | 0.00 | 99 | 1013.0 |
| 20260506225203 | 57 | 0 | 0.0 | 0.0 | 0.00 | 0.44 | 0.00 | 99 | 1013.0 |
| 20260506224803 | 57 | 0 | 0.0 | 0.0 | 0.00 | 0.44 | 0.00 | 99 | 1013.1 |
| 20260506224404 | 57 | 0 | 0.0 | 0.0 | 0.00 | 0.44 | 0.00 | 99 | 1012.9 |
| 20260506224004 | 57 | 0 | 0.0 | 0.0 | 0.00 | 0.44 | 0.00 | 99 | 1013.0 |
| 20260506223818 | 57 | 0 | 0.0 | 0.0 | 0.00 | 0.44 | 0.00 | 99 | 1012.9 |
| 20260506223204 | 56 | 0 | 0.0 | 0.0 | 0.00 | 0.44 | 0.00 | 99 | 1013.2 |
| 20260506222805 | 57 | 0 | 0.0 | 0.0 | 0.00 | 0.44 | 0.00 | 99 | 1013.4 |
| 20260506222404 | 57 | 0 | 0.0 | 0.0 | 0.00 | 0.44 | 0.00 | 99 | 1013.2 |
| 20260506222003 | 57 | 0 | 0.0 | 0.0 | 0.00 | 0.44 | 0.00 | 99 | 1013.2 |
| 20260506221603 | 57 | 0 | 0.0 | 0.0 | 0.00 | 0.44 | 0.00 | 99 | 1013.1 |
| 20260506221204 | 57 | 0 | 0.0 | 0.0 | 0.00 | 0.44 | 0.00 | 99 | 1013.2 |
| 20260506220803 | 57 | 0 | 0.0 | 0.0 | 0.00 | 0.44 | 0.00 | 99 | 1013.1 |
| 20260506220405 | 57 | 0 | 0.0 | 0.0 | 0.00 | 0.44 | 0.00 | 99 | 1013.4 |
| 20260506220007 | 57 | 0 | 0.0 | 0.0 | 0.00 | 0.44 | 0.00 | 99 | 1013.2 |
| 20260506215816 | 57 | 0 | 0.0 | 0.0 | 0.00 | 0.44 | 0.44 | 99 | 1013.2 |
| 20260506215204 | 58 | 0 | 0.0 | 0.0 | 0.00 | 0.44 | 0.44 | 99 | 1013.3 |
| 20260506214804 | 58 | 0 | 0.0 | 0.0 | 0.00 | 0.44 | 0.44 | 99 | 1013.0 |
| 20260506214403 | 58 | 337 | 0.0 | 1.7 | 0.00 | 0.44 | 0.44 | 99 | 1013.0 |
| 20260506214214 | 58 | 337 | 0.0 | 1.7 | 0.00 | 0.44 | 0.44 | 99 | 1013.1 |
| 20260506213604 | 59 | 337 | 0.0 | 1.7 | 0.00 | 0.44 | 0.44 | 99 | 1013.0 |
| 20260506213204 | 59 | 337 | 0.0 | 1.7 | 0.00 | 0.44 | 0.44 | 99 | 1012.9 |
| 20260506212805 | 59 | 0 | 0.0 | 0.0 | 0.00 | 0.44 | 0.44 | 99 | 1012.9 |
| 20260506212404 | 59 | 0 | 0.0 | 0.0 | 0.00 | 0.44 | 0.44 | 99 | 1012.9 |
| 20260506212004 | 59 | 0 | 0.0 | 0.0 | 0.00 | 0.44 | 0.44 | 99 | 1013.0 |
| 20260506211815 | 59 | 0 | 0.0 | 0.0 | 0.00 | 0.44 | 0.44 | 99 | 1012.9 |
| 20260506211203 | 59 | 0 | 0.0 | 0.0 | 0.00 | 0.44 | 0.44 | 99 | 1013.0 |
| 20260506210804 | 59 | 0 | 0.0 | 0.0 | 0.00 | 0.44 | 0.44 | 99 | 1012.8 |
| 20260506210403 | 59 | 0 | 0.0 | 0.0 | 0.00 | 0.44 | 0.44 | 99 | 1012.7 |
| 20260506210007 | 60 | 0 | 0.0 | 0.0 | 0.00 | 0.44 | 0.44 | 99 | 1012.8 |
| 20260506205603 | 60 | 337 | 0.0 | 1.7 | 0.00 | 0.44 | 0.44 | 99 | 1013.0 |
| 20260506205203 | 60 | 337 | 0.0 | 1.7 | 0.00 | 0.44 | 0.44 | 99 | 1012.8 |
| 20260506205016 | 60 | 337 | 0.0 | 1.7 | 0.00 | 0.44 | 0.44 | 99 | 1012.7 |
| 20260506204616 | 60 | 360 | 0.0 | 1.7 | 0.00 | 0.44 | 0.44 | 99 | 1012.7 |
| 20260506204004 | 60 | 11 | 0.0 | 1.7 | 0.00 | 0.44 | 0.44 | 99 | 1012.8 |
| 20260506203814 | 60 | 11 | 0.0 | 1.7 | 0.00 | 0.44 | 0.44 | 99 | 1012.8 |
| 20260506203203 | 60 | 360 | 0.0 | 1.7 | 0.00 | 0.44 | 0.44 | 98 | 1012.7 |
| 20260506203023 | 60 | 360 | 0.0 | 1.7 | 0.00 | 0.44 | 0.44 | 98 | 1012.9 |
| 20260506202404 | 60 | 360 | 0.0 | 1.7 | 0.00 | 0.44 | 0.44 | 98 | 1012.7 |
| 20260506202003 | 60 | 360 | 0.0 | 1.7 | 0.00 | 0.44 | 0.44 | 98 | 1012.8 |
| 20260506201604 | 60 | 0 | 0.0 | 0.0 | 0.00 | 0.44 | 0.44 | 98 | 1012.8 |
| 20260506201204 | 61 | 0 | 0.0 | 0.0 | 0.00 | 0.44 | 0.44 | 98 | 1012.6 |
| 20260506200804 | 61 | 22 | 0.0 | 1.7 | 0.00 | 0.44 | 0.44 | 97 | 1012.5 |
| 20260506200413 | 61 | 22 | 0.0 | 1.7 | 0.00 | 0.44 | 0.44 | 97 | 1012.5 |
| 20260506200213 | 61 | 22 | 0.0 | 1.7 | 0.00 | 0.44 | 0.44 | 97 | 1012.6 |
| 20260506195604 | 61 | 11 | 0.0 | 1.7 | 0.00 | 0.44 | 0.44 | 97 | 1012.6 |
| 20260506195203 | 61 | 15 | 0.9 | 1.7 | 0.00 | 0.44 | 0.44 | 97 | 1012.3 |
| 20260506195021 | 61 | 21 | 0.0 | 1.7 | 0.00 | 0.44 | 0.44 | 97 | 1012.6 |
| 20260506194403 | 62 | 23 | 0.0 | 3.5 | 0.00 | 0.44 | 0.44 | 96 | 1012.3 |
| 20260506194215 | 62 | 22 | 0.9 | 3.5 | 0.00 | 0.44 | 0.44 | 96 | 1012.4 |
| 20260506193814 | 62 | 15 | 0.9 | 3.5 | 0.00 | 0.44 | 0.44 | 96 | 1012.3 |
| 20260506193203 | 62 | 351 | 0.0 | 1.7 | 0.00 | 0.44 | 0.44 | 96 | 1012.1 |
| 20260506192803 | 62 | 338 | 0.0 | 1.7 | 0.00 | 0.44 | 0.44 | 95 | 1012.2 |
| 20260506192404 | 62 | 343 | 0.9 | 1.7 | 0.00 | 0.44 | 0.44 | 95 | 1012.2 |
| 20260506192003 | 62 | 349 | 0.9 | 1.7 | 0.00 | 0.44 | 0.44 | 95 | 1012.2 |
| 20260506191603 | 62 | 343 | 0.9 | 1.7 | 0.00 | 0.44 | 0.44 | 95 | 1012.0 |
| 20260506191204 | 62 | 357 | 0.0 | 1.7 | 0.00 | 0.44 | 0.44 | 95 | 1012.1 |
| 20260506191015 | 62 | 344 | 0.0 | 1.7 | 0.00 | 0.44 | 0.44 | 95 | 1011.9 |
| 20260506190403 | 62 | 338 | 0.9 | 1.7 | 0.00 | 0.44 | 0.44 | 95 | 1012.0 |
| 20260506190009 | 63 | 344 | 0.9 | 1.7 | 0.00 | 0.44 | 0.44 | 95 | 1012.0 |
| 20260506185603 | 63 | 342 | 0.0 | 1.7 | 0.00 | 0.44 | 0.44 | 94 | 1011.9 |
| 20260506185203 | 63 | 356 | 0.0 | 3.5 | 0.00 | 0.44 | 0.44 | 94 | 1011.9 |
| 20260506184804 | 63 | 5 | 0.0 | 3.5 | 0.00 | 0.44 | 0.44 | 94 | 1011.8 |
| 20260506184404 | 63 | 12 | 1.7 | 3.5 | 0.00 | 0.44 | 0.44 | 94 | 1011.7 |
| 20260506184004 | 63 | 7 | 0.0 | 3.5 | 0.00 | 0.44 | 0.44 | 94 | 1011.7 |
| 20260506183603 | 63 | 14 | 0.9 | 3.5 | 0.00 | 0.44 | 0.44 | 93 | 1011.8 |
| 20260506183203 | 63 | 20 | 1.7 | 3.5 | 0.00 | 0.44 | 0.44 | 93 | 1011.6 |
| 20260506183014 | 63 | 18 | 1.7 | 3.5 | 0.00 | 0.44 | 0.44 | 93 | 1011.7 |
| 20260506182403 | 63 | 346 | 1.7 | 3.5 | 0.00 | 0.44 | 0.44 | 93 | 1011.5 |
| 20260506182218 | 63 | 326 | 2.6 | 3.5 | 0.00 | 0.44 | 0.44 | 93 | 1011.5 |
| 20260506181817 | 63 | 307 | 0.0 | 3.5 | 0.00 | 0.44 | 0.44 | 94 | 1011.7 |
| 20260506181203 | 63 | 309 | 0.0 | 3.5 | 0.00 | 0.44 | 0.44 | 94 | 1011.4 |
| 20260506180803 | 63 | 342 | 0.9 | 3.5 | 0.00 | 0.44 | 0.44 | 94 | 1011.6 |
| 20260506180404 | 63 | 24 | 1.7 | 3.5 | 0.00 | 0.44 | 0.44 | 94 | 1011.3 |
| 20260506180005 | 63 | 49 | 1.7 | 3.5 | 0.00 | 0.44 | 0.44 | 93 | 1011.1 |
| 20260506175814 | 63 | 53 | 0.9 | 1.7 | 0.00 | 0.44 | 0.44 | 93 | 1011.2 |
| 20260506175418 | 63 | 90 | 0.0 | 1.7 | 0.00 | 0.44 | 0.44 | 93 | 1011.1 |
| 20260506174804 | 63 | 92 | 0.0 | 3.5 | 0.00 | 0.44 | 0.44 | 92 | 1011.4 |
| 20260506174404 | 63 | 89 | 0.0 | 5.2 | 0.00 | 0.44 | 0.44 | 92 | 1011.2 |
| 20260506174003 | 64 | 78 | 1.7 | 5.2 | 0.00 | 0.44 | 0.44 | 92 | 1011.3 |
| 20260506173603 | 64 | 55 | 1.7 | 3.5 | 0.00 | 0.44 | 0.44 | 91 | 1011.3 |
| 20260506173203 | 64 | 29 | 0.9 | 1.7 | 0.00 | 0.44 | 0.44 | 91 | 1011.3 |
| 20260506172804 | 64 | 44 | 0.0 | 1.7 | 0.00 | 0.44 | 0.44 | 91 | 1011.3 |
| 20260506172403 | 64 | 61 | 1.7 | 1.7 | 0.00 | 0.44 | 0.44 | 91 | 1011.4 |
| 20260506172003 | 64 | 35 | 0.9 | 3.5 | 0.00 | 0.44 | 0.44 | 91 | 1011.6 |
| 20260506171603 | 64 | 18 | 0.0 | 3.5 | 0.00 | 0.44 | 0.44 | 91 | 1011.3 |
| 20260506171203 | 64 | 18 | 0.0 | 3.5 | 0.00 | 0.44 | 0.44 | 91 | 1011.2 |
| 20260506170804 | 64 | 58 | 0.0 | 1.7 | 0.00 | 0.44 | 0.44 | 91 | 1011.2 |
| 20260506170404 | 64 | 51 | 0.0 | 1.7 | 0.00 | 0.44 | 0.44 | 91 | 1011.1 |
| 20260506170215 | 64 | 52 | 0.9 | 1.7 | 0.00 | 0.44 | 0.44 | 91 | 1011.1 |
| 20260506165604 | 64 | 1 | 0.9 | 1.7 | 0.00 | 0.44 | 0.44 | 90 | 1011.0 |
| 20260506165204 | 64 | 348 | 0.0 | 1.7 | 0.00 | 0.44 | 0.44 | 90 | 1011.1 |
| 20260506164804 | 64 | 346 | 0.0 | 1.7 | 0.00 | 0.44 | 0.44 | 90 | 1011.1 |
| 20260506164618 | 64 | 354 | 1.7 | 1.7 | 0.00 | 0.44 | 0.44 | 90 | 1011.0 |
| 20260506164003 | 65 | 33 | 0.9 | 1.7 | 0.00 | 0.44 | 0.44 | 90 | 1011.2 |
| 20260506163603 | 64 | 87 | 0.9 | 1.7 | 0.00 | 0.44 | 0.44 | 90 | 1011.3 |
| 20260506163203 | 64 | 89 | 0.0 | 3.5 | 0.00 | 0.44 | 0.44 | 90 | 1011.2 |
| 20260506162803 | 64 | 87 | 0.0 | 3.5 | 0.00 | 0.44 | 0.44 | 90 | 1011.2 |
| 20260506162404 | 64 | 83 | 1.7 | 5.2 | 0.00 | 0.44 | 0.44 | 90 | 1011.1 |
| 20260506162214 | 64 | 82 | 1.7 | 5.2 | 0.00 | 0.44 | 0.44 | 90 | 1011.1 |
| 20260506161604 | 64 | 85 | 2.6 | 5.2 | 0.00 | 0.44 | 0.44 | 89 | 1011.3 |
| 20260506161203 | 64 | 89 | 1.7 | 5.2 | 0.00 | 0.44 | 0.44 | 88 | 1011.4 |
| 20260506161017 | 64 | 90 | 1.7 | 5.2 | 0.00 | 0.44 | 0.44 | 88 | 1011.5 |
| 20260506160403 | 65 | 88 | 1.7 | 3.5 | 0.00 | 0.44 | 0.44 | 88 | 1011.6 |
| 20260506160004 | 65 | 81 | 1.7 | 3.5 | 0.00 | 0.44 | 0.44 | 87 | 1011.2 |
| 20260506155604 | 66 | 80 | 0.9 | 3.5 | 0.00 | 0.44 | 0.44 | 87 | 1011.3 |
| 20260506155203 | 66 | 93 | 0.9 | 3.5 | 0.00 | 0.44 | 0.44 | 87 | 1011.6 |
| 20260506154804 | 67 | 88 | 0.0 | 3.5 | 0.00 | 0.44 | 0.44 | 86 | 1011.5 |
| 20260506154404 | 67 | 87 | 1.7 | 5.2 | 0.00 | 0.44 | 0.44 | 87 | 1011.4 |
| 20260506154217 | 66 | 89 | 0.0 | 5.2 | 0.00 | 0.44 | 0.44 | 89 | 1011.2 |
| 20260506153603 | 65 | 98 | 1.7 | 5.2 | 0.00 | 0.44 | 0.44 | 90 | 1011.4 |
| 20260506153204 | 65 | 97 | 0.9 | 5.2 | 0.00 | 0.44 | 0.44 | 90 | 1011.2 |
| 20260506152804 | 65 | 91 | 1.7 | 5.2 | 0.00 | 0.44 | 0.44 | 91 | 1011.2 |
| 20260506152403 | 64 | 91 | 1.7 | 5.2 | 0.00 | 0.44 | 0.44 | 92 | 1011.2 |
| 20260506152004 | 64 | 83 | 1.7 | 3.5 | 0.00 | 0.44 | 0.44 | 92 | 1011.1 |
| 20260506151603 | 64 | 82 | 1.7 | 5.2 | 0.00 | 0.44 | 0.44 | 92 | 1011.4 |
| 20260506151204 | 64 | 86 | 1.7 | 5.2 | 0.00 | 0.44 | 0.44 | 92 | 1011.3 |
| 20260506150803 | 64 | 82 | 1.7 | 5.2 | 0.00 | 0.44 | 0.44 | 91 | 1011.2 |
| 20260506150403 | 64 | 75 | 1.7 | 5.2 | 0.00 | 0.44 | 0.44 | 90 | 1011.4 |
| 20260506150004 | 64 | 81 | 0.9 | 5.2 | 0.00 | 0.44 | 0.44 | 90 | 1011.4 |
| 20260506145603 | 64 | 86 | 1.7 | 5.2 | 0.00 | 0.44 | 0.44 | 88 | 1011.4 |
| 20260506145204 | 64 | 86 | 0.9 | 5.2 | 0.00 | 0.44 | 0.44 | 89 | 1011.4 |
| 20260506144804 | 64 | 76 | 3.5 | 5.2 | 0.00 | 0.44 | 0.44 | 87 | 1011.5 |
| 20260506144404 | 64 | 58 | 0.0 | 3.5 | 0.00 | 0.44 | 0.44 | 88 | 1011.4 |
| 20260506144003 | 64 | 56 | 1.7 | 5.2 | 0.00 | 0.44 | 0.44 | 88 | 1011.4 |
| 20260506143817 | 63 | 45 | 0.0 | 5.2 | 0.00 | 0.44 | 0.44 | 89 | 1011.6 |
| 20260506143203 | 63 | 23 | 0.9 | 5.2 | 0.00 | 0.44 | 0.44 | 92 | 1011.6 |
| 20260506142803 | 63 | 55 | 0.0 | 6.1 | 0.00 | 0.44 | 0.44 | 93 | 1011.5 |
| 20260506142404 | 62 | 72 | 2.6 | 7.0 | 0.00 | 0.44 | 0.44 | 92 | 1011.4 |
| 20260506142003 | 62 | 69 | 1.7 | 7.0 | 0.00 | 0.44 | 0.44 | 93 | 1011.3 |
| 20260506141603 | 63 | 60 | 1.7 | 6.1 | 0.00 | 0.44 | 0.44 | 94 | 1011.3 |
| 20260506141203 | 63 | 53 | 1.7 | 6.1 | 0.00 | 0.44 | 0.44 | 97 | 1011.5 |
| 20260506140803 | 63 | 59 | 1.7 | 5.2 | 0.01 | 0.44 | 0.44 | 97 | 1011.5 |
| 20260506140403 | 63 | 72 | 1.7 | 5.2 | 0.04 | 0.44 | 0.44 | 98 | 1011.7 |
| 20260506140003 | 63 | 77 | 2.6 | 3.5 | 0.06 | 0.44 | 0.44 | 98 | 1011.3 |
| 20260506135603 | 62 | 61 | 1.7 | 3.5 | 0.12 | 0.44 | 0.44 | 98 | 1011.5 |
| 20260506135203 | 62 | 46 | 0.9 | 3.5 | 0.18 | 0.44 | 0.44 | 99 | 1011.5 |
| 20260506134804 | 63 | 50 | 1.7 | 3.5 | 0.22 | 0.44 | 0.44 | 99 | 1011.5 |
| 20260506134404 | 63 | 38 | 0.9 | 6.1 | 0.24 | 0.44 | 0.44 | 99 | 1011.3 |
| 20260506134004 | 62 | 39 | 1.7 | 6.1 | 0.24 | 0.44 | 0.44 | 99 | 1011.4 |
| 20260506133813 | 62 | 36 | 1.7 | 6.1 | 0.24 | 0.44 | 0.44 | 99 | 1011.7 |
| 20260506133203 | 63 | 24 | 0.0 | 3.5 | 0.25 | 0.44 | 0.44 | 99 | 1011.8 |
| 20260506132803 | 62 | 28 | 1.7 | 3.5 | 0.25 | 0.44 | 0.44 | 99 | 1011.7 |
| 20260506132403 | 62 | 38 | 1.7 | 3.5 | 0.25 | 0.44 | 0.44 | 99 | 1011.9 |
| 20260506132003 | 62 | 45 | 1.7 | 3.5 | 0.25 | 0.44 | 0.44 | 99 | 1012.0 |
| 20260506131603 | 62 | 44 | 1.7 | 3.5 | 0.25 | 0.44 | 0.44 | 99 | 1011.9 |
| 20260506131203 | 62 | 50 | 1.7 | 3.5 | 0.25 | 0.44 | 0.44 | 99 | 1011.9 |
| 20260506130803 | 62 | 71 | 0.9 | 1.7 | 0.24 | 0.43 | 0.43 | 98 | 1012.0 |
| 20260506130403 | 62 | 216 | 0.0 | 1.7 | 0.21 | 0.40 | 0.40 | 98 | 1012.1 |
| 20260506130005 | 62 | 259 | 0.0 | 1.7 | 0.19 | 0.38 | 0.38 | 98 | 1012.1 |
| 20260506125603 | 62 | 254 | 0.0 | 1.7 | 0.13 | 0.32 | 0.32 | 97 | 1012.2 |
| 20260506125203 | 63 | 70 | 0.0 | 1.7 | 0.07 | 0.26 | 0.26 | 96 | 1012.3 |
| 20260506124803 | 63 | 84 | 0.0 | 1.7 | 0.02 | 0.21 | 0.21 | 96 | 1012.1 |
| 20260506124403 | 63 | 88 | 0.9 | 1.7 | 0.01 | 0.20 | 0.20 | 95 | 1012.2 |
| 20260506124214 | 63 | 85 | 0.0 | 1.7 | 0.01 | 0.20 | 0.20 | 95 | 1012.1 |
| 20260506123603 | 63 | 68 | 0.9 | 3.5 | 0.00 | 0.19 | 0.19 | 94 | 1012.1 |
| 20260506123204 | 63 | 59 | 0.9 | 5.2 | 0.00 | 0.19 | 0.19 | 93 | 1011.8 |
| 20260506122803 | 64 | 44 | 0.9 | 5.2 | 0.00 | 0.19 | 0.19 | 93 | 1012.2 |
| 20260506122403 | 64 | 51 | 0.0 | 5.2 | 0.00 | 0.19 | 0.19 | 93 | 1011.9 |
| 20260506122003 | 64 | 57 | 1.7 | 3.5 | 0.00 | 0.19 | 0.19 | 94 | 1011.8 |
| 20260506121604 | 63 | 58 | 1.7 | 3.5 | 0.00 | 0.19 | 0.19 | 94 | 1012.0 |
| 20260506121415 | 63 | 62 | 1.7 | 3.5 | 0.00 | 0.19 | 0.19 | 94 | 1012.0 |
| 20260506120804 | 64 | 63 | 1.7 | 3.5 | 0.00 | 0.19 | 0.19 | 93 | 1012.2 |
| 20260506120403 | 64 | 74 | 0.9 | 6.1 | 0.00 | 0.19 | 0.19 | 93 | 1012.2 |
| 20260506120213 | 63 | 77 | 0.9 | 6.1 | 0.00 | 0.19 | 0.19 | 93 | 1012.2 |
| 20260506115603 | 63 | 91 | 0.9 | 6.1 | 0.00 | 0.19 | 0.19 | 92 | 1012.2 |
| 20260506115204 | 64 | 95 | 1.7 | 5.2 | 0.00 | 0.19 | 0.19 | 91 | 1012.3 |
| 20260506114803 | 64 | 92 | 2.6 | 5.2 | 0.00 | 0.19 | 0.19 | 91 | 1012.2 |
| 20260506114404 | 64 | 97 | 2.6 | 6.1 | 0.00 | 0.19 | 0.19 | 90 | 1012.4 |
| 20260506114003 | 64 | 98 | 0.9 | 6.1 | 0.00 | 0.19 | 0.19 | 90 | 1012.3 |
| 20260506113603 | 64 | 95 | 2.6 | 6.1 | 0.00 | 0.19 | 0.19 | 89 | 1012.3 |
| 20260506113204 | 64 | 92 | 1.7 | 6.1 | 0.00 | 0.19 | 0.19 | 89 | 1012.6 |
| 20260506112803 | 65 | 83 | 1.7 | 5.2 | 0.00 | 0.19 | 0.19 | 88 | 1012.5 |
| 20260506112403 | 64 | 83 | 1.7 | 6.1 | 0.00 | 0.19 | 0.19 | 89 | 1012.6 |
| 20260506112217 | 65 | 75 | 3.5 | 6.1 | 0.00 | 0.19 | 0.19 | 88 | 1012.6 |
| 20260506111816 | 64 | 69 | 0.9 | 6.1 | 0.00 | 0.19 | 0.19 | 89 | 1012.8 |
| 20260506111204 | 65 | 74 | 1.7 | 3.5 | 0.00 | 0.19 | 0.19 | 88 | 1012.5 |
| 20260506110803 | 65 | 77 | 0.9 | 5.2 | 0.00 | 0.19 | 0.19 | 89 | 1012.7 |
| 20260506110403 | 64 | 79 | 0.9 | 5.2 | 0.00 | 0.19 | 0.19 | 90 | 1012.6 |
| 20260506110004 | 64 | 78 | 2.6 | 5.2 | 0.00 | 0.19 | 0.19 | 90 | 1012.9 |
| 20260506105603 | 63 | 81 | 2.6 | 5.2 | 0.00 | 0.19 | 0.19 | 92 | 1012.7 |
| 20260506105204 | 62 | 86 | 1.7 | 3.5 | 0.00 | 0.19 | 0.19 | 93 | 1012.9 |
| 20260506104804 | 62 | 80 | 1.7 | 5.2 | 0.00 | 0.19 | 0.19 | 95 | 1013.0 |
| 20260506104616 | 62 | 81 | 1.7 | 5.2 | 0.00 | 0.19 | 0.19 | 95 | 1012.8 |
| 20260506104004 | 62 | 83 | 0.9 | 6.1 | 0.00 | 0.19 | 0.19 | 95 | 1013.0 |
| 20260506103603 | 62 | 79 | 0.9 | 6.1 | 0.00 | 0.20 | 0.19 | 94 | 1013.0 |
| 20260506103204 | 62 | 73 | 3.5 | 6.1 | 0.01 | 0.20 | 0.19 | 93 | 1012.8 |
| 20260506102803 | 62 | 57 | 0.9 | 3.5 | 0.01 | 0.20 | 0.19 | 93 | 1012.7 |
| 20260506102404 | 62 | 59 | 1.7 | 3.5 | 0.01 | 0.20 | 0.19 | 93 | 1013.0 |
| 20260506102004 | 61 | 70 | 0.9 | 3.5 | 0.02 | 0.20 | 0.19 | 95 | 1013.0 |
| 20260506101604 | 61 | 81 | 1.7 | 3.5 | 0.02 | 0.20 | 0.19 | 95 | 1013.1 |
| 20260506101203 | 61 | 91 | 0.0 | 3.5 | 0.04 | 0.20 | 0.19 | 96 | 1013.3 |
| 20260506100803 | 61 | 94 | 1.7 | 3.5 | 0.05 | 0.20 | 0.19 | 95 | 1013.2 |
| 20260506100404 | 61 | 92 | 0.0 | 3.5 | 0.05 | 0.20 | 0.19 | 97 | 1013.2 |
| 20260506095815 | 61 | 81 | 0.9 | 3.5 | 0.05 | 0.20 | 0.19 | 97 | 1009.5 |
| 20260506095203 | 61 | 86 | 1.7 | 3.5 | 0.05 | 0.20 | 0.19 | 97 | 1009.4 |
| 20260506094804 | 61 | 90 | 0.0 | 3.5 | 0.05 | 0.20 | 0.19 | 98 | 1009.4 |
| 20260506094403 | 61 | 99 | 1.7 | 3.5 | 0.05 | 0.20 | 0.19 | 98 | 1009.5 |
| 20260506094004 | 61 | 94 | 0.0 | 3.5 | 0.05 | 0.20 | 0.19 | 98 | 1009.6 |
| 20260506093603 | 61 | 94 | 1.7 | 3.5 | 0.05 | 0.20 | 0.19 | 97 | 1009.5 |
| 20260506093203 | 61 | 87 | 2.6 | 3.5 | 0.04 | 0.19 | 0.18 | 96 | 1009.6 |
| 20260506092803 | 61 | 91 | 0.9 | 3.5 | 0.04 | 0.19 | 0.18 | 96 | 1009.4 |
| 20260506092404 | 61 | 95 | 2.6 | 3.5 | 0.04 | 0.19 | 0.18 | 95 | 1009.7 |
| 20260506092004 | 61 | 95 | 2.6 | 3.5 | 0.02 | 0.18 | 0.17 | 95 | 1009.6 |
| 20260506091603 | 61 | 92 | 1.7 | 3.5 | 0.02 | 0.18 | 0.17 | 94 | 1009.7 |
| 20260506091203 | 61 | 85 | 1.7 | 3.5 | 0.01 | 0.17 | 0.15 | 93 | 1009.5 |
| 20260506090804 | 62 | 81 | 0.0 | 3.5 | 0.00 | 0.17 | 0.14 | 93 | 1009.7 |
| 20260506090403 | 62 | 79 | 1.7 | 3.5 | 0.00 | 0.17 | 0.14 | 91 | 1009.6 |
| 20260506090004 | 63 | 69 | 0.9 | 1.7 | 0.00 | 0.18 | 0.14 | 91 | 1009.4 |
| 20260506085604 | 63 | 55 | 0.0 | 1.7 | 0.00 | 0.18 | 0.14 | 90 | 1009.2 |
| 20260506085203 | 63 | 59 | 0.0 | 1.7 | 0.00 | 0.19 | 0.14 | 89 | 1009.3 |
| 20260506084803 | 63 | 86 | 0.0 | 1.7 | 0.00 | 0.19 | 0.14 | 90 | 1009.2 |
| 20260506084404 | 64 | 98 | 0.0 | 1.7 | 0.00 | 0.20 | 0.14 | 89 | 1009.1 |
| 20260506084003 | 64 | 90 | 0.0 | 1.7 | 0.00 | 0.20 | 0.14 | 88 | 1009.1 |
| 20260506083603 | 63 | 90 | 0.0 | 1.7 | 0.00 | 0.20 | 0.14 | 90 | 1009.1 |
| 20260506083203 | 63 | 90 | 0.0 | 1.7 | 0.00 | 0.20 | 0.14 | 92 | 1009.1 |
| 20260506082803 | 62 | 90 | 0.0 | 1.7 | 0.00 | 0.20 | 0.14 | 90 | 1009.2 |
| 20260506082403 | 62 | 90 | 0.0 | 1.7 | 0.00 | 0.20 | 0.14 | 92 | 1009.3 |
| 20260506082003 | 62 | 90 | 0.9 | 1.7 | 0.00 | 0.20 | 0.14 | 93 | 1009.0 |
| 20260506081814 | 62 | 90 | 0.0 | 1.7 | 0.00 | 0.20 | 0.14 | 93 | 1009.1 |
| 20260506081413 | 62 | 0 | 0.0 | 0.0 | 0.00 | 0.20 | 0.14 | 92 | 1009.1 |
| 20260506080804 | 62 | 0 | 0.0 | 0.0 | 0.00 | 0.20 | 0.14 | 95 | 1009.1 |
| 20260506080403 | 61 | 90 | 0.0 | 1.7 | 0.00 | 0.20 | 0.14 | 98 | 1009.2 |